Location: Gajan
(43.0218°N, 1.1244°E)
Time: 16:36:49
(UTC+00:00)

SAR-Lupe-4 - Pass Details

Date: 22 April 2021
Orbit: 483 x 483 km, 98.2° (Epoch: 13 April)

Event Time Altitude Azimuth Distance (km) Brightness Sun altitude
Rises 19:14:01 0° 13° (NNE) 2,558 7.4 -5.6°
Reaches altitude 10° 19:16:05 10° 13° (NNE) 1,673 6.4 -5.9°
Maximum altitude 19:19:41 88° 282° (WNW) 490 3.6 -6.5°
Drops below altitude 10° 19:23:15 10° 195° (SSW) 1,659 6.2 -7.1°
Sets 19:25:18 0° 195° (SSW) 2,534 7.1 -7.5°
